EN

Hourly Weather Dubovyky

Today, 18 April, Sunday

Time Temperature Precipitation Wind Pressure Humidity
00:00 +8°C° 0 mm 2 mps 753 mmHg 72%
01:00 +8°C° 0 mm 2 mps 753 mmHg 73%
02:00 +8°C° 0 mm 2 mps 752 mmHg 75%
03:00 +7°C° 0 mm 2 mps 752 mmHg 75%
04:00 +7°C° 0 mm 2 mps 752 mmHg 75%
05:00 +7°C° 0 mm 2 mps 752 mmHg 75%
06:00 +8°C° 0 mm 2 mps 752 mmHg 70%
07:00 +9°C° 0 mm 2 mps 752 mmHg 64%
08:00 +10°C° 0 mm 2 mps 752 mmHg 59%
09:00 +13°C° 0 mm 2 mps 752 mmHg 54%
10:00 +13°C° 0 mm 3 mps 752 mmHg 49%
11:00 +14°C° 0 mm 3 mps 751 mmHg 44%
12:00 +14°C° 0 mm 3 mps 751 mmHg 43%
13:00 +15°C° 0 mm 2 mps 751 mmHg 42%
14:00 +15°C° 0 mm 2 mps 751 mmHg 40%
15:00 +15°C° 0 mm 2 mps 751 mmHg 42%
16:00 +15°C° 0 mm 1 mps 750 mmHg 44%
17:00 +15°C° 0 mm 1 mps 750 mmHg 45%
18:00 +14°C° 0 mm 1 mps 750 mmHg 50%
19:00 +13°C° 0 mm 2 mps 751 mmHg 55%
20:00 +12°C° 0 mm 2 mps 751 mmHg 60%
21:00 +10°C° 0 mm 2 mps 751 mmHg 64%
22:00 +9°C° 0 mm 2 mps 751 mmHg 68%
23:00 +8°C° 0 mm 2 mps 751 mmHg 73%

Tomorrow, 19 April, Monday

Time Temperature Precipitation Wind Pressure Humidity
00:00 +8°C° 0 mm 2 mps 751 mmHg 74%
01:00 +8°C° 0 mm 2 mps 751 mmHg 76%
02:00 +7°C° 0 mm 2 mps 751 mmHg 78%
03:00 +7°C° 0 mm 2 mps 751 mmHg 79%
04:00 +7°C° 0 mm 2 mps 751 mmHg 80%
05:00 +7°C° 0 mm 2 mps 751 mmHg 81%
06:00 +8°C° 0 mm 2 mps 751 mmHg 76%
07:00 +9°C° 0 mm 2 mps 751 mmHg 71%
08:00 +10°C° 0 mm 2 mps 751 mmHg 66%
09:00 +12°C° 0 mm 2 mps 750 mmHg 61%
10:00 +14°C° 0 mm 2 mps 750 mmHg 56%
11:00 +15°C° 0 mm 1 mps 750 mmHg 51%
12:00 +15°C° 0 mm 2 mps 750 mmHg 49%
13:00 +16°C° 0 mm 2 mps 749 mmHg 47%
14:00 +16°C° 0 mm 2 mps 749 mmHg 44%
15:00 +16°C° 0 mm 2 mps 749 mmHg 47%
16:00 +15°C° 0 mm 2 mps 749 mmHg 50%
17:00 +15°C° 0 mm 2 mps 749 mmHg 53%
18:00 +14°C° 0 mm 2 mps 749 mmHg 54%
19:00 +14°C° 0 mm 2 mps 749 mmHg 56%
20:00 +13°C° 0 mm 2 mps 749 mmHg 57%
21:00 +13°C° 0 mm 2 mps 748 mmHg 59%
22:00 +12°C° 0 mm 2 mps 747 mmHg 61%
23:00 +11°C° 0 mm 3 mps 747 mmHg 63%

Day after tomorrow, 20 April, Tuesday

Time Temperature Precipitation Wind Pressure Humidity
00:00 +11°C° 0 mm 3 mps 746 mmHg 64%
01:00 +11°C° 0 mm 3 mps 746 mmHg 66%
02:00 +10°C° 0 mm 4 mps 745 mmHg 68%
03:00 +10°C° 0.2 mm 4 mps 745 mmHg 71%
04:00 +10°C° 0.2 mm 4 mps 744 mmHg 75%
05:00 +10°C° 0.2 mm 4 mps 743 mmHg 79%
06:00 +8°C° 2 mm 5 mps 742 mmHg 84%
07:00 +8°C° 2 mm 5 mps 742 mmHg 88%
08:00 +8°C° 2 mm 6 mps 741 mmHg 93%
09:00 +9°C° 3 mm 6 mps 740 mmHg 92%
10:00 +9°C° 3 mm 6 mps 739 mmHg 92%
11:00 +10°C° 3 mm 6 mps 738 mmHg 92%
12:00 +10°C° 0.8 mm 6 mps 737 mmHg 90%
13:00 +12°C° 0.8 mm 5 mps 737 mmHg 87%
14:00 +12°C° 0.8 mm 5 mps 737 mmHg 85%
15:00 +12°C° 0.4 mm 5 mps 737 mmHg 83%
16:00 +11°C° 0.4 mm 6 mps 737 mmHg 81%
17:00 +11°C° 0.4 mm 7 mps 737 mmHg 79%
18:00 +10°C° 0.1 mm 7 mps 737 mmHg 80%
19:00 +9°C° 0.1 mm 7 mps 737 mmHg 81%
20:00 +9°C° 0.1 mm 7 mps 738 mmHg 82%
21:00 +8°C° 0.1 mm 6 mps 738 mmHg 85%
22:00 +8°C° 0.1 mm 6 mps 738 mmHg 89%
23:00 +8°C° 0.1 mm 5 mps 739 mmHg 92%

21 April, Wednesday

Time Temperature Precipitation Wind Pressure Humidity
00:00 +7°C° 0.1 mm 6 mps 740 mmHg 90%
01:00 +6°C° 0.1 mm 7 mps 741 mmHg 89%
02:00 +6°C° 0.1 mm 7 mps 742 mmHg 88%
03:00 +5°C° 0 mm 7 mps 744 mmHg 88%
04:00 +5°C° 0 mm 6 mps 745 mmHg 87%
05:00 +4°C° 0 mm 6 mps 746 mmHg 86%
06:00 +5°C° 0 mm 6 mps 747 mmHg 81%
07:00 +5°C° 0 mm 6 mps 748 mmHg 76%
08:00 +7°C° 0 mm 6 mps 748 mmHg 71%
09:00 +7°C° 0 mm 6 mps 749 mmHg 67%
10:00 +8°C° 0 mm 6 mps 749 mmHg 63%
11:00 +9°C° 0 mm 6 mps 750 mmHg 60%
12:00 +10°C° 0 mm 6 mps 750 mmHg 56%
13:00 +11°C° 0 mm 6 mps 750 mmHg 52%
14:00 +11°C° 0 mm 6 mps 751 mmHg 48%
15:00 +12°C° 0 mm 5 mps 751 mmHg 50%
16:00 +12°C° 0 mm 5 mps 751 mmHg 51%
17:00 +12°C° 0 mm 4 mps 751 mmHg 53%
18:00 +11°C° 0 mm 3 mps 752 mmHg 57%
19:00 +10°C° 0 mm 2 mps 752 mmHg 60%
20:00 +9°C° 0 mm 0 mps 753 mmHg 63%
21:00 +10°C° 0 mm 1 mps 753 mmHg 64%
22:00 +10°C° 0 mm 1 mps 753 mmHg 65%
23:00 +9°C° 0 mm 1 mps 753 mmHg 67%

22 April, Thursday

Time Temperature Precipitation Wind Pressure Humidity
00:00 +8°C° 0 mm 2 mps 754 mmHg 68%
01:00 +8°C° 0 mm 2 mps 754 mmHg 69%
02:00 +8°C° 0 mm 2 mps 754 mmHg 70%
03:00 +8°C° 0 mm 2 mps 754 mmHg 72%
04:00 +8°C° 0 mm 2 mps 754 mmHg 74%
05:00 +8°C° 0 mm 2 mps 754 mmHg 76%
06:00 +9°C° 0 mm 2 mps 755 mmHg 72%
07:00 +12°C° 0 mm 2 mps 755 mmHg 67%
08:00 +13°C° 0 mm 2 mps 755 mmHg 63%
09:00 +13°C° 0.1 mm 3 mps 755 mmHg 58%
10:00 +14°C° 0.1 mm 3 mps 755 mmHg 53%
11:00 +16°C° 0.1 mm 3 mps 755 mmHg 48%
12:00 +16°C° 0.2 mm 3 mps 755 mmHg 50%
13:00 +16°C° 0.2 mm 3 mps 755 mmHg 51%
14:00 +16°C° 0.2 mm 3 mps 755 mmHg 53%
15:00 +16°C° 0.2 mm 3 mps 755 mmHg 55%
16:00 +14°C° 0.2 mm 3 mps 755 mmHg 57%
17:00 +14°C° 0.2 mm 3 mps 755 mmHg 59%
18:00 +13°C° 0.5 mm 3 mps 755 mmHg 65%
19:00 +12°C° 0.5 mm 3 mps 755 mmHg 72%
20:00 +10°C° 0.5 mm 2 mps 756 mmHg 79%
21:00 +10°C° 0 mm 2 mps 755 mmHg 79%
22:00 +9°C° 0 mm 2 mps 755 mmHg 80%
23:00 +9°C° 0 mm 2 mps 755 mmHg 81%

23 April, Friday

Time Temperature Precipitation Wind Pressure Humidity
00:00 +8°C° 0 mm 2 mps 755 mmHg 82%
01:00 +8°C° 0 mm 2 mps 755 mmHg 82%
02:00 +7°C° 0 mm 2 mps 755 mmHg 82%
03:00 +7°C° 0 mm 2 mps 755 mmHg 82%
04:00 +8°C° 0 mm 1 mps 755 mmHg 82%
05:00 +8°C° 0 mm 1 mps 755 mmHg 82%
06:00 +10°C° 0 mm 1 mps 755 mmHg 75%
07:00 +12°C° 0 mm 2 mps 756 mmHg 68%
08:00 +13°C° 0 mm 2 mps 756 mmHg 61%
09:00 +15°C° 0 mm 2 mps 756 mmHg 55%
10:00 +16°C° 0 mm 2 mps 755 mmHg 50%
11:00 +17°C° 0 mm 3 mps 755 mmHg 45%
12:00 +17°C° 0 mm 3 mps 755 mmHg 43%
13:00 +18°C° 0 mm 2 mps 755 mmHg 41%
14:00 +18°C° 0 mm 2 mps 754 mmHg 40%
15:00 +18°C° 0 mm 2 mps 754 mmHg 43%
16:00 +17°C° 0 mm 2 mps 754 mmHg 45%
17:00 +17°C° 0 mm 2 mps 754 mmHg 48%
18:00 +16°C° 0 mm 2 mps 754 mmHg 51%
19:00 +15°C° 0 mm 2 mps 754 mmHg 54%
20:00 +14°C° 0 mm 2 mps 754 mmHg 57%
21:00 +13°C° 0 mm 2 mps 754 mmHg 62%
22:00 +12°C° 0 mm 2 mps 754 mmHg 66%
23:00 +10°C° 0 mm 2 mps 754 mmHg 71%
Show more

We Need Your Consent

Meteoprog and our Service Providers may store and access personal data such as cookies, device identifiers or other similar technologies on your device and process such data to personalise content and ads, as well as provide social media features and to analyse the traffic.

  • Store and/or access information on your device

    Cookies, device identifiers or other information can be stored or accessed on your device for the purposes indicated above.

  • Personalised ads and content, ad and content measurement, audience insights, and products development

    Ads and content can be personalised based on a profile. More data can be added to better personalise ads and content. Ad and content performance can be measured. Insights about the audience who saw the ads and content can be derived. Such data can be used to develop or improve user’s experience, systems and software.

By clicking ‘I Agree’ you will allow the use of indicated cookies, device identifiers, web beacons or other similar technologies. Your settings can be changed in the browser on your device.

For certain purposes, legitimate interests may be relied on, rather than consent. You can read more about this in our Privacy and Cookie Policy.